THORAD AGENA D DEB, 42505

Orbit data source: Space-Track

THORAD AGENA D DEB, 42505 is space debris in SSO originally from a launch on Wed, 08 Apr 1970 UTC launched from the Air Force Western Test Range (AFWTR). Debris objects in space refer to the collection of defunct objects orbiting the Earth. Examples of debris include non-operational satellites, rocket bodies, and fragments generated from explosions, collisions, or faulty payload assembly.

Loading next visibility...
Identifier
42505, 1970-025RK
Orbit
SSO
Country
Flag of USUS
Related business
Manufacturer
Unknown
Mission
Spacecraft
Bus & Motor
Unknown
Mass
Unknown
Launch date (UTC)
1970-04-08 (56 years ago)
Launch vehicle
Unknown
Launch site
Air Force Western Test Range (AFWTR)
Object type
Payload
Rocket body
Debris
Shape & HBR
Unknown shape, 0.1 m
Radar Cross Section
Small (<0.1 m²)

Expand to show TLE details & history
Last TLE update: 3 days ago

TLE from 3 days ago
0 THORAD AGENA D DEB
1 42505U 70025RK  26120.66286509  .00000465  00000-0  68664-3 0  9991
2 42505 100.1719  74.2986 0043403 312.5050 224.2961 13.59762979616819
Epoch: 2026-04-30T15:54Z
TLE epoch observation values (Epoch: 2026-04-30T15:54:31.543Z)
Latitude
3.3976°
Longitude
157.66812°
Altitude
1,062.065 km
Speed
7.31 km/s
True Right ascension
16h 59m 37s
True Declination
3° 22' 41"
Sunlit
Object was in full shadow at epoch
Visualization orbit readout
Latitude
Unknown
Longitude
Unknown
Altitude
Unknown
Speed
Unknown
Apparent Right ascension
Unknown
Apparent Declination
Unknown
Sunlit
N/A
Visualization observer readout
Local Sidereal Time
17:31:24
Azimuth
Unknown
Elevation
Unknown
Doppler factor
Unknown
Orbital elements
Apogee altitude
1,066.037 km
Perigee altitude
1,001.696 km
Semi-major axis
7,412.004 km
Eccentricity
0.00434
Inclination
100.1719°
RAAN
74.2986°
Arg. of periapsis
312.505°
True anomaly
223.95011°
Mean anomaly
224.2961°
Eccentric anomaly
224.12297°
Mean motion
3.40126 °/min
Orbital period
105.84 mins
BSTAR
0.00068664

Documentation

Showing up to 5 results
|